Huvudsida
METAR-TAF:

METAR-TAF

Flygplatser :

Enid, Oklahoma, USA

latitud: 36-22-45N, longitud: 097-47-28W, höjd: 356 m

Aktuellt väderrapport

Denna rapport gjordes för 35 minuter sedan, klockan 01:45 UTC
Vind 11 kt från ost/nordost
Temperatur 2°C
Fuktighet 87%
Tryck 1019 hPa
Sikt: 16.1 km
Få moln på en höjd av 20000 ft

METAR: KWDG 250145Z 06011KT 10SM FEW200 02/M00 A3008

Tid: 20:20 (02:20 UTC)


TAF: saknas

Aktuella väderrapporter och prognoser från 4000 flygplatser (METAR- och TAF-rapporter).

De tillgängliga stationerna syns som gula och röda prickar på kartan.

För musen över prickarna för att se namnen på stationerna.

Klicka sedan för att få väderrapporter och prognoser.

För att ändra kartan: Klicka på de gröna knapparna med ett svart kors på för att zooma in; den gröna knappen med ett streck på för att zooma ut; eller på de gröna pilarna för angränsande kartor.


METAR-TAF: